Location: Riailles
(44.8460°N, 4.6507°E)
Time: 20:51:57
(UTC+00:00)

Daily predictions for brighter satellites

Satellite Brightness Start Highest point End
(mag) Time Altitude Azimuth Time Altitude Azimuth Time Altitude Azimuth
COSMOS 2428 3.9 20:04:30 10° SSE 20:08:38 21° E 20:12:48 10° NE
Cosmos 1703 4.0 20:06:34 10° SSE 20:10:06 35° E 20:13:40 10° NNE
Cosmos 1844 4.3 20:04:39 10° NNW 20:10:15 48° ENE 20:15:45 10° SE
Resurs 1-3 4.0 20:06:34 10° S 20:10:55 67° WSW 20:15:18 10° NNW
Cosmos 2322 4.3 20:05:59 10° S 20:11:11 37° ESE 20:16:24 10° NE
Cosmos 1745 Rocket 4.0 20:05:33 10° S 20:11:40 68° E 20:17:54 10° NNE
MetOp-B 4.4 20:07:51 10° SSE 20:13:05 57° ENE 20:18:21 10° N
SL-08 ROCKET BODY 4.4 20:07:40 10° S 20:13:34 70° E 20:19:36 10° NNE
Cosmos 2263 Rocket 3.9 20:10:55 10° NW 20:15:40 30° WSW 20:20:25 10° SSW
Cosmos 2219 Rocket 3.0 20:15:37 10° SSE 20:20:20 29° ESE 20:25:06 10° NE
ATLAS CENTAUR R/B 2.9 20:18:19 10° N 20:21:14 21° NE 20:24:05 10° E
ERS-1 Rocket 4.1 20:17:04 10° SE 20:21:22 29° ENE 20:25:41 10° N
Cosmos 1818 3.6 20:16:17 10° SSW 20:21:42 84° ESE 20:27:11 10° NE
Cosmos 2360 Rocket 2.2 20:17:04 10° SSW 20:22:43 84° ESE 20:28:25 10° NNE
USA 215 3.8 20:19:04 10° ENE 20:24:54 34° SE 20:30:42 10° S
SPOT 5 4.1 20:23:15 10° ESE 20:27:27 28° ENE 20:31:30 10° N
Atlas Centaur 2 3.7 20:26:10 10° SW 20:30:23 21° S 20:34:39 12° SE
Landsat 7 4.0 20:26:11 10° SSE 20:30:49 57° ENE 20:35:30 10° N
Cosmos 1825 Rocket 3.7 20:27:46 10° S 20:32:08 60° E 20:36:32 10° NNE
Cosmos 2333 Rocket 2.7 20:28:48 10° S 20:34:04 41° ESE 20:39:24 10° NE
CZ-2C R/B 4.1 20:31:04 10° N 20:36:07 41° WNW 20:41:03 10° SW
Cosmos 1812 Rocket 4.4 20:35:56 10° NNW 20:40:08 49° W 20:44:17 10° SSW
GEOS 3 Rocket 3.8 20:35:19 10° NE 20:40:39 57° ESE 20:45:56 10° SSW
SL-16 R/B 4.1 20:38:10 10° WSW 20:43:17 34° NW 20:48:26 10° N
Spot 2 Rocket 3.5 20:39:25 11° SSE 20:44:25 83° ENE 20:49:33 10° NNW
IGS 5A 3.4 20:42:27 12° SSE 20:46:14 81° ENE 20:50:25 10° N
Cosmos 1315 Rocket 3.9 20:43:28 10° N 20:47:10 32° ENE 20:49:47 16° SE
OAO 2 Rocket 4.4 20:46:00 10° SW 20:50:29 28° S 20:53:38 16° SE
ATLAS 5 CENTAUR R/B 2.1 20:47:15 10° SW 20:51:20 61° NW 20:55:56 10° NNE
CARTOSAT-1 4.0 20:49:41 17° SE 20:52:49 48° ENE 20:56:59 10° N
USA 81 4.4 20:48:47 13° SSE 20:53:16 49° E 20:58:22 10° NNE
Meteor 2-10 Rocket 4.5 20:48:36 10° NNW 20:53:29 46° W 20:58:30 10° SSW
Cosmos 2278 Rocket 3.4 20:49:26 10° N 20:54:27 31° NE 20:58:50 13° ESE
Cosmos 1709 Rocket 4.0 20:50:19 10° S 20:56:36 83° E 21:03:00 10° N
Cosmos 1844 Rocket 3.0 20:51:19 10° NNW 20:56:50 64° WSW 21:01:37 14° S
USA 267 4.3 20:51:25 10° E 20:57:30 43° NNE 21:03:36 10° NW
Meteor 1-11 4.2 20:57:25 10° S 21:03:01 75° E 21:08:43 10° NNE
SPOT 1/Viking Rocket 3.6 21:00:43 15° SSE 21:05:05 84° WSW 21:10:18 10° NNW
Cosmos-2242 3.6 21:03:47 10° NNW 21:08:03 56° W 21:11:57 12° S
BREEZE-M R/B 4.5 20:56:18 10° WNW 21:08:33 82° SSW 21:12:48 18° SE
Cosmos 1400 Rocket 3.5 21:04:54 10° NNW 21:08:45 50° W 21:12:02 13° S
Cosmos 2184 Rocket 4.5 21:08:51 18° SSE 21:13:01 43° E 21:18:53 10° NNE
Cosmos 2221 3.4 21:09:04 10° N 21:13:06 35° ENE 21:15:14 22° SE
Lacrosse 5 rocket 4.2 21:11:40 10° NW 21:14:09 15° N 21:16:32 10° NNE
Resurs 01 Rocket 3.7 21:11:15 10° SW 21:14:42 22° W 21:18:10 10° NW
Terra 2.1 21:14:58 22° SE 21:17:51 57° ENE 21:22:31 10° N
SAR-Lupe-2 3.9 21:16:08 10° N 21:19:42 67° WNW 21:22:58 12° SSW
Cosmos 2058 3.8 21:27:38 27° SE 21:28:51 32° E 21:32:34 10° NNE
NOSS 3-3 (A) 4.0 21:32:38 10° SW 21:38:28 79° NW 21:45:06 10° NE
NOSS 3-3 (C) 4.0 21:32:43 10° SW 21:38:35 80° NW 21:45:13 10° NE
Cosmos 1825 4.0 21:39:57 17° E 21:40:07 17° E 21:42:37 10° NE
Cosmos 1980 3.9 21:41:49 24° S 21:45:00 53° ESE 21:50:29 10° NE
Cosmos 1538 Rocket 4.5 21:40:22 10° SSW 21:45:40 63° WNW 21:50:59 10° NNE
JB-3 4.3 21:43:12 10° NNE 21:47:00 58° E 21:48:04 40° SSE
Meteor 2-17 Rocket 4.4 21:43:29 25° S 21:47:05 66° E 21:53:05 10° NNE
Cosmos 1076 Rocket 3.8 21:47:32 35° SE 21:48:49 47° E 21:52:56 10° NNE
Nadezhda 3 Rocket 4.3 21:45:48 10° N 21:52:04 56° ENE 21:55:18 28° SE
COSMOS 2428 3.2 21:46:48 10° SW 21:52:24 61° WNW 21:58:03 10° NNE
Cosmos 2154 Rocket 4.2 21:49:47 28° SSE 21:52:59 56° E 21:59:02 10° NNE
Cosmos 2084 3.8 21:50:10 10° NW 21:54:32 56° WSW 21:56:03 36° S
Cosmos 2151 4.2 21:55:43 24° ESE 21:56:17 25° E 21:59:47 10° NNE
DELTA 2 R/B (1) 3.9 21:52:39 10° WSW 21:57:54 42° SSE 22:01:15 21° ESE
ATLAS 2AS CENTAUR R/B 3.2 21:50:25 10° NNW 21:57:57 60° NE 22:02:39 22° ESE
Cosmos 2074 Rocket 4.0 21:54:31 21° S 21:58:55 84° W 22:05:11 10° N
ERS-1 Rocket 4.1 21:56:48 18° SSW 22:00:01 37° W 22:04:43 10° NNW
Thor Agena Rocket 4.1 21:55:21 10° NNE 22:00:07 39° E 22:01:29 32° SE
ATLAS CENTAUR R/B 1.8 21:56:48 10° NW 22:00:15 39° WSW 22:00:56 35° SSW
Cosmos 1869 3.4 21:57:13 10° NNW 22:01:12 69° W 22:02:34 39° SSW
Genesis I 3.3 22:00:58 49° SE 22:01:23 52° ESE 22:05:11 10° NE
BREEZE-M DEB (TANK) 3.0 21:56:55 10° WNW 22:01:39 42° N 22:03:23 17° ENE
Cosmos 2237 Rocket 2.2 21:59:39 25° S 22:02:59 69° ESE 22:08:40 10° NNE
Cosmos 2219 Rocket 3.2 21:58:44 10° SW 22:04:03 45° WNW 22:09:27 10° NNE
Cosmos 1842 Rocket 4.0 22:00:30 10° NNW 22:04:44 53° W 22:06:35 30° SSW
SPOT 5 4.0 22:02:26 20° SSW 22:05:23 38° W 22:09:53 10° NNW
Cosmos 1371 Rocket 4.5 22:01:27 10° NNW 22:06:35 51° ENE 22:08:51 31° ESE
USA 215 3.4 22:01:43 10° NE 22:08:17 78° NW 22:14:49 10° WSW
Spot 4 4.4 22:06:50 31° ESE 22:08:35 45° ENE 22:13:08 10° N
Cosmos 2344 3.6 22:05:03 21° S 22:10:04 56° ESE 22:17:41 10° NE
Cosmos 158 Rocket 3.7 22:09:32 37° S 22:11:26 70° ESE 22:16:19 10° NNE
Gblst 52 Del rocket 4.4 22:08:34 10° WNW 22:14:20 68° SW 22:17:16 33° SE
Cosmos 2112 Rocket 4.0 22:12:33 34° S 22:14:54 71° ESE 22:20:15 10° NNE
Elektron 1 4.1 22:15:07 41° SW 22:16:10 89° NNW 22:21:03 10° NE
Cosmos 2333 Rocket 3.8 22:13:15 10° WSW 22:18:24 34° NW 22:23:37 10° NNE
Atlas Centaur 2 4.1 22:14:28 10° SW 22:17:13 17° SSW 22:17:13 17° SSW
ALOS 2 3.9 22:18:57 24° E 22:20:16 29° ENE 22:24:04 10° N
Cosmos 2327 Rocket 4.5 22:17:25 28° SSW 22:20:56 83° W 22:27:06 10° N
Iridium 2 3.6 22:21:31 10° N 22:25:21 75° E 22:25:48 64° SE
Cosmos 1892 3.3 22:26:26 36° SW 22:27:34 49° WNW 22:31:17 10° N
NOSS 0 Rocket 4.2 22:22:19 11° SW 22:28:12 65° WNW 22:34:22 10° NNE
EO 1 Del DPAF 3.2 22:26:02 10° NNE 22:29:46 62° E 22:29:55 61° ESE
Cosmos 2056 Rocket 3.7 22:25:04 10° NNW 22:30:29 70° ENE 22:32:26 40° SE
Cosmos 1295 Rocket 4.4 22:29:34 34° S 22:32:27 87° E 22:38:35 10° N
GP-B 4.0 22:28:23 10° NNE 22:32:27 34° E 22:33:05 33° ESE
Cosmos 1606 3.4 22:33:24 10° N 22:37:06 40° ENE 22:37:25 39° E
Cosmos 1408 2.8 22:37:57 54° WSW 22:38:22 59° W 22:41:54 10° N
Cosmos 2278 Rocket 2.8 22:33:18 10° NW 22:38:43 46° WSW 22:40:40 33° SSW
Cosmos 962 Rocket 4.5 22:37:12 37° S 22:39:55 79° E 22:46:19 10° N
USA 267 3.2 22:36:39 30° SE 22:40:11 83° SW 22:46:47 10° NW
Cosmos 44 3.0 22:40:50 55° SE 22:40:57 56° ESE 22:45:15 10° NE
Cosmos 2297 4.1 22:35:48 10° NNW 22:41:28 57° ENE 22:43:52 33° ESE
Cosmos 1943 Rocket 3.6 22:37:03 10° N 22:42:04 31° NE 22:45:29 17° ESE
Cosmos 1680 Rocket 4.0 22:39:45 23° SW 22:43:00 59° WNW 22:48:17 10° NNE
MOS 1-B Rocket 4.3 22:35:47 10° NNE 22:43:26 82° ESE 22:46:38 34° S
SL-16 R/B 2.3 22:46:34 44° SSE 22:48:05 58° ESE 22:53:40 10° NNE
Cosmos 371 Rocket 3.9 22:45:11 10° N 22:49:53 47° ENE 22:51:21 35° ESE
Cosmos 2221 4.4 22:47:07 10° NW 22:50:26 21° W 22:52:05 17° WSW
CREW DRAGON DEMO-1 DEB 3.8 22:53:16 47° N 22:53:16 47° N 22:55:55 10° NE
Lacrosse 5 rocket 3.8 22:51:31 10° NNW 22:54:36 20° NNE 22:57:33 10° ENE
Terra 3.9 22:53:51 13° WSW 22:55:57 17° W 22:59:03 10° NW
Cosmos 1452 Rocket 4.3 22:52:19 10° N 22:57:21 44° ENE 22:59:20 31° ESE
Cosmos 1515 Rocket 4.5 22:55:23 10° N 22:59:24 35° ENE 23:00:08 33° E
IRIDIUM 114 4.4 22:59:06 48° SE 23:00:22 65° E 23:05:33 10° N
Cosmos 1766 Rocket 3.4 23:01:32 67° S 23:02:06 84° E 23:06:32 10° N
Cosmos 1328 Rocket 3.5 23:01:19 10° N 23:05:38 69° E 23:06:06 62° ESE
Okean 3 Rocket 3.6 23:07:35 57° SW 23:08:22 73° W 23:12:48 10° N
IRIDIUM 103 4.3 23:08:14 52° SSE 23:09:30 78° E 23:14:44 10° N
Meteor 2-3 Rocket 3.8 23:12:54 47° SSE 23:14:22 65° E 23:20:02 10° NNE
Cosmos 1340 2.7 23:15:33 70° ENE 23:15:33 70° ENE 23:19:05 10° NNE
Cosmos 1825 3.4 23:14:45 31° W 23:15:20 33° WNW 23:18:49 10° N
Cosmos 864 Rocket 4.4 23:16:18 44° S 23:18:26 80° E 23:24:46 10° N
Cosmos 2218 Rocket 4.0 23:17:43 43° S 23:20:02 89° E 23:26:23 10° N
Cosmos 2228 Rocket 4.3 23:16:14 10° N 23:20:25 33° ENE 23:21:26 30° E
NOSS 3-4 (A) 4.2 23:14:09 10° NW 23:20:57 49° WSW 23:23:28 37° SSW
NOSS 3-4 (C) 4.2 23:14:16 10° NW 23:21:05 49° WSW 23:23:36 37° SSW
Aureole 2 Rocket 3.9 23:19:18 10° NW 23:20:49 25° NW 23:20:49 25° NW
Cosmos 2366 rocket 4.0 23:21:57 43° S 23:24:15 89° WNW 23:30:38 10° N
Meteor 1-26 Rocket 4.3 23:20:31 10° N 23:26:32 81° ENE 23:28:23 47° SSE
IRIDIUM 106 4.3 23:26:31 50° SSW 23:27:49 73° W 23:33:03 10° N
Cosmos 1743 Rocket 3.9 23:29:40 48° ESE 23:29:53 49° E 23:34:05 10° NNE
Cosmos 2369 Rocket 2.9 23:25:13 10° NNW 23:30:38 47° ENE 23:33:18 27° ESE
SL-4 R/B 4.2 23:33:31 11° NNW 23:33:31 11° NNW 23:33:40 10° NNW
Cosmos 1959 Rocket 4.5 23:30:32 42° SSW 23:32:43 76° W 23:38:57 10° N
Cosmos 2151 4.4 23:32:17 25° WSW 23:33:27 29° WNW 23:37:13 10° NNW
Cosmos 304 Rocket 4.1 23:29:01 10° NNW 23:33:48 58° ENE 23:35:00 44° ESE
YAOGAN 11 4.3 23:33:15 54° ESE 23:33:55 62° ENE 23:38:17 10° N
Helios 1A 2.8 23:34:08 73° ESE 23:34:25 78° ENE 23:38:35 10° N
Cosmos 1933 3.6 23:31:36 10° NNW 23:35:32 54° W 23:35:34 54° W
COSMOS 2455 2.8 23:33:21 10° NNW 23:39:26 80° ENE 23:41:47 39° SE
DELTA 2 R/B (1) 4.3 23:38:31 10° WSW 23:51:38 - ESE 23:42:01 35° SW
Cosmos 2237 Rocket 4.3 23:43:09 10° W 23:47:35 23° NW 23:52:03 10° N
ATLAS 2AS CENTAUR R/B 3.5 23:42:02 10° NW 23:48:30 34° WSW 23:50:03 31° SW
Cosmos 1812 4.2 23:47:31 10° NNE 23:50:52 27° ENE 23:51:25 26° E
Cosmos 1151 Rocket 4.0 23:48:22 10° NNW 23:52:18 34° W 23:52:34 34° W
Cosmos 1408 Rocket 4.1 23:52:07 44° WSW 23:52:46 48° WNW 23:57:02 10° N
Cosmos 1782 2.7 23:49:09 10° N 23:53:04 83° WNW 23:53:04 83° WNW
CZ-2D R/B 4.3 23:52:52 10° ENE 23:55:15 13° E 23:57:20 11° ESE
Cosmos 1346 Rocket 2.9 23:55:57 61° W 23:56:01 61° WNW 23:59:55 10° N
